Time,TemperatureF,DewpointF,PressureIn,WindDirection,WindDirectionDegrees,WindSpeedMPH,WindSpeedGustMPH,Humidity,HourlyPrecipIn,Conditions,Clouds,dailyrainin,SoftwareType,DateUTC
2013-01-11 00:03:00,40.0,40.0,-100.00,ESE,120,7.0,10.0,99,-99.99,,,-99.99,,2013-01-11 06:03:00,
2013-01-11 00:12:00,42.0,41.0,-100.00,SE,135,4.0,6.0,99,-99.99,,,-99.99,,2013-01-11 06:12:00,
2013-01-11 00:22:00,42.0,42.0,-100.00,ESE,115,11.0,13.0,99,-99.99,,,-99.99,,2013-01-11 06:22:00,
2013-01-11 00:32:00,42.0,42.0,-100.00,ESE,115,11.0,13.0,99,-99.99,,,-99.99,,2013-01-11 06:32:00,
2013-01-11 00:42:00,42.0,42.0,-100.00,SE,135,10.0,14.0,99,-99.99,,,-99.99,,2013-01-11 06:42:00,
2013-01-11 00:52:00,44.0,44.0,-100.00,SE,135,9.0,14.0,99,-99.99,,,-99.99,,2013-01-11 06:52:00,
2013-01-11 01:02:00,44.0,44.0,-100.00,SE,135,9.0,14.0,99,-99.99,,,-99.99,,2013-01-11 07:02:00,
2013-01-11 01:12:00,44.0,43.0,-100.00,ESE,115,9.0,11.0,99,-99.99,,,-99.99,,2013-01-11 07:12:00,
2013-01-11 01:22:00,44.0,43.0,-100.00,SE,145,8.0,11.0,99,-99.99,,,-99.99,,2013-01-11 07:22:00,
2013-01-11 01:32:00,44.0,43.0,-100.00,SE,145,8.0,11.0,99,-99.99,,,-99.99,,2013-01-11 07:32:00,
2013-01-11 01:42:00,44.0,43.0,-100.00,ESE,115,9.0,14.0,99,-99.99,,,-99.99,,2013-01-11 07:42:00,
2013-01-11 01:52:00,43.0,43.0,-100.00,East,90,9.0,11.0,99,-99.99,,,-99.99,,2013-01-11 07:52:00,
2013-01-11 02:02:00,43.0,43.0,-100.00,East,90,9.0,11.0,99,-99.99,,,-99.99,,2013-01-11 08:02:00,
2013-01-11 02:12:00,43.0,43.0,-100.00,SE,125,10.0,15.0,99,-99.99,,,-99.99,,2013-01-11 08:12:00,
2013-01-11 02:22:00,44.0,43.0,-100.00,SE,125,6.0,10.0,99,-99.99,,,-99.99,,2013-01-11 08:22:00,
2013-01-11 02:32:00,44.0,43.0,-100.00,SE,125,6.0,10.0,99,-99.99,,,-99.99,,2013-01-11 08:32:00,
2013-01-11 02:42:00,44.0,44.0,-100.00,South,180,6.0,7.0,99,-99.99,,,-99.99,,2013-01-11 08:42:00,
2013-01-11 02:53:00,46.0,46.0,-100.00,SSE,165,7.0,9.0,99,-99.99,,,-99.99,,2013-01-11 08:53:00,
2013-01-11 03:02:00,46.0,46.0,-100.00,SSE,165,7.0,9.0,99,-99.99,,,-99.99,,2013-01-11 09:02:00,
2013-01-11 03:12:00,47.0,46.0,-100.00,South,170,7.0,10.0,99,-99.99,,,-99.99,,2013-01-11 09:12:00,
2013-01-11 03:22:00,45.0,45.0,-100.00,South,180,6.0,7.0,99,-99.99,,,-99.99,,2013-01-11 09:22:00,
2013-01-11 03:32:00,45.0,45.0,-100.00,South,180,6.0,7.0,99,-99.99,,,-99.99,,2013-01-11 09:32:00,
2013-01-11 03:42:00,46.0,46.0,-100.00,SSW,195,8.0,10.0,99,-99.99,,,-99.99,,2013-01-11 09:42:00,
2013-01-11 03:52:00,46.0,46.0,-100.00,SSW,210,11.0,13.0,99,-99.99,,,-99.99,,2013-01-11 09:52:00,
2013-01-11 04:02:00,46.0,46.0,-100.00,SSW,210,11.0,13.0,99,-99.99,,,-99.99,,2013-01-11 10:02:00,
2013-01-11 04:12:00,48.0,47.0,-100.00,SW,220,11.0,16.0,99,-99.99,,,-99.99,,2013-01-11 10:12:00,
2013-01-11 04:22:00,48.0,47.0,-100.00,SW,225,14.0,20.0,99,-99.99,,,-99.99,,2013-01-11 10:22:00,
2013-01-11 04:32:00,48.0,47.0,-100.00,SW,225,14.0,20.0,99,-99.99,,,-99.99,,2013-01-11 10:32:00,
2013-01-11 04:42:00,48.0,47.0,-100.00,SW,230,15.0,19.0,99,-99.99,,,-99.99,,2013-01-11 10:42:00,
2013-01-11 04:52:00,46.0,46.0,-100.00,WSW,245,21.0,30.0,99,-99.99,,,-99.99,,2013-01-11 10:52:00,
2013-01-11 05:03:00,46.0,46.0,-100.00,WSW,245,21.0,30.0,99,-99.99,,,-99.99,,2013-01-11 11:03:00,
2013-01-11 05:12:00,45.0,45.0,-100.00,West,260,17.0,25.0,99,-99.99,,,-99.99,,2013-01-11 11:12:00,
2013-01-11 05:22:00,45.0,45.0,-100.00,West,260,19.0,24.0,99,-99.99,,,-99.99,,2013-01-11 11:22:00,
2013-01-11 05:33:00,45.0,45.0,-100.00,West,260,19.0,24.0,99,-99.99,,,-99.99,,2013-01-11 11:33:00,
2013-01-11 05:42:00,45.0,44.0,-100.00,WSW,250,21.0,28.0,99,-99.99,,,-99.99,,2013-01-11 11:42:00,
2013-01-11 05:53:00,44.0,44.0,-100.00,WSW,255,19.0,28.0,99,-99.99,,,-99.99,,2013-01-11 11:53:00,
2013-01-11 06:03:00,44.0,44.0,-100.00,WSW,255,19.0,28.0,99,-99.99,,,-99.99,,2013-01-11 12:03:00,
2013-01-11 06:12:00,44.0,44.0,-100.00,West,260,23.0,29.0,99,-99.99,,,-99.99,,2013-01-11 12:12:00,
2013-01-11 06:22:00,44.0,44.0,-100.00,West,270,21.0,29.0,99,-99.99,,,-99.99,,2013-01-11 12:22:00,
2013-01-11 06:33:00,44.0,44.0,-100.00,West,270,21.0,29.0,99,-99.99,,,-99.99,,2013-01-11 12:33:00,
2013-01-11 06:42:00,44.0,44.0,-100.00,West,270,19.0,24.0,99,-99.99,,,-99.99,,2013-01-11 12:42:00,
2013-01-11 06:53:00,44.0,44.0,-100.00,West,270,17.0,24.0,99,-99.99,,,-99.99,,2013-01-11 12:53:00,
2013-01-11 07:03:00,44.0,44.0,-100.00,West,270,17.0,24.0,99,-99.99,,,-99.99,,2013-01-11 13:03:00,
2013-01-11 07:13:00,45.0,44.0,-100.00,West,260,17.0,26.0,99,-99.99,,,-99.99,,2013-01-11 13:13:00,
2013-01-11 07:22:00,44.0,44.0,-100.00,WSW,250,15.0,22.0,99,-99.99,,,-99.99,,2013-01-11 13:22:00,
2013-01-11 07:33:00,44.0,44.0,-100.00,WSW,250,15.0,22.0,99,-99.99,,,-99.99,,2013-01-11 13:33:00,
2013-01-11 07:42:00,44.0,44.0,-100.00,WSW,240,13.0,23.0,99,-99.99,,,-99.99,,2013-01-11 13:42:00,
2013-01-11 07:53:00,44.0,44.0,-100.00,WSW,255,11.0,20.0,99,-99.99,,,-99.99,,2013-01-11 13:53:00,
2013-01-11 08:03:00,44.0,44.0,-100.00,WSW,255,11.0,20.0,99,-99.99,,,-99.99,,2013-01-11 14:03:00,
2013-01-11 08:12:00,44.0,44.0,-100.00,WSW,245,13.0,18.0,99,-99.99,,,-99.99,,2013-01-11 14:12:00,
2013-01-11 08:23:00,44.0,44.0,-100.00,SW,230,12.0,16.0,99,-99.99,,,-99.99,,2013-01-11 14:23:00,
2013-01-11 08:33:00,44.0,44.0,-100.00,SW,230,12.0,16.0,99,-99.99,,,-99.99,,2013-01-11 14:33:00,
2013-01-11 08:43:00,44.0,44.0,-100.00,SW,230,12.0,19.0,99,-99.99,,,-99.99,,2013-01-11 14:43:00,
2013-01-11 08:53:00,45.0,44.0,-100.00,SW,225,11.0,17.0,99,-99.99,,,-99.99,,2013-01-11 14:53:00,
2013-01-11 09:03:00,45.0,44.0,-100.00,SW,225,11.0,17.0,99,-99.99,,,-99.99,,2013-01-11 15:03:00,
2013-01-11 09:13:00,45.0,45.0,-100.00,SW,230,11.0,16.0,99,-99.99,,,-99.99,,2013-01-11 15:13:00,
2013-01-11 09:23:00,45.0,45.0,-100.00,SW,225,11.0,16.0,99,-99.99,,,-99.99,,2013-01-11 15:23:00,
2013-01-11 09:33:00,45.0,45.0,-100.00,SW,225,11.0,16.0,99,-99.99,,,-99.99,,2013-01-11 15:33:00,
2013-01-11 09:43:00,45.0,45.0,-100.00,SW,220,14.0,18.0,99,-99.99,,,-99.99,,2013-01-11 15:43:00,
2013-01-11 09:53:00,45.0,45.0,-100.00,SW,220,17.0,23.0,99,-99.99,,,-99.99,,2013-01-11 15:53:00,
2013-01-11 10:03:00,45.0,45.0,-100.00,SW,220,17.0,23.0,99,-99.99,,,-99.99,,2013-01-11 16:03:00,
2013-01-11 10:12:00,46.0,46.0,-100.00,SW,225,16.0,24.0,99,-99.99,,,-99.99,,2013-01-11 16:12:00,
2013-01-11 10:22:00,46.0,46.0,-100.00,SSW,205,12.0,16.0,99,-99.99,,,-99.99,,2013-01-11 16:22:00,
2013-01-11 10:33:00,46.0,46.0,-100.00,SSW,205,12.0,16.0,99,-99.99,,,-99.99,,2013-01-11 16:33:00,
2013-01-11 10:42:00,46.0,46.0,-100.00,SSW,210,14.0,21.0,99,-99.99,,,-99.99,,2013-01-11 16:42:00,
2013-01-11 10:53:00,47.0,46.0,-100.00,SSW,210,14.0,21.0,99,-99.99,,,-99.99,,2013-01-11 16:53:00,
2013-01-11 11:03:00,47.0,46.0,-100.00,SSW,210,14.0,21.0,99,-99.99,,,-99.99,,2013-01-11 17:03:00,
2013-01-11 11:12:00,47.0,47.0,-100.00,SSW,200,15.0,19.0,99,-99.99,,,-99.99,,2013-01-11 17:12:00,
2013-01-11 11:22:00,47.0,47.0,-100.00,SSW,200,13.0,20.0,99,-99.99,,,-99.99,,2013-01-11 17:22:00,
2013-01-11 11:33:00,47.0,47.0,-100.00,SSW,200,13.0,20.0,99,-99.99,,,-99.99,,2013-01-11 17:33:00,
2013-01-11 11:43:00,48.0,47.0,-100.00,SSW,200,18.0,21.0,99,-99.99,,,-99.99,,2013-01-11 17:43:00,
2013-01-11 11:53:00,48.0,48.0,-100.00,SSW,205,14.0,21.0,99,-99.99,,,-99.99,,2013-01-11 17:53:00,
2013-01-11 12:03:00,48.0,48.0,-100.00,SSW,205,14.0,21.0,99,-99.99,,,-99.99,,2013-01-11 18:03:00,
2013-01-11 12:12:00,48.0,48.0,-100.00,SSW,210,16.0,26.0,99,-99.99,,,-99.99,,2013-01-11 18:12:00,
2013-01-11 12:23:00,49.0,48.0,-100.00,South,190,19.0,24.0,99,-99.99,,,-99.99,,2013-01-11 18:23:00,
2013-01-11 12:33:00,49.0,48.0,-100.00,South,190,19.0,24.0,99,-99.99,,,-99.99,,2013-01-11 18:33:00,
2013-01-11 12:43:00,49.0,48.0,-100.00,SSW,205,23.0,26.0,99,-99.99,,,-99.99,,2013-01-11 18:43:00,
2013-01-11 12:53:00,50.0,50.0,-100.00,SSW,205,14.0,23.0,99,-99.99,,,-99.99,,2013-01-11 18:53:00,
2013-01-11 13:03:00,50.0,50.0,-100.00,SSW,205,14.0,23.0,99,-99.99,,,-99.99,,2013-01-11 19:03:00,
2013-01-11 13:12:00,50.0,50.0,-100.00,SSW,205,19.0,27.0,99,-99.99,,,-99.99,,2013-01-11 19:12:00,
2013-01-11 13:22:00,51.0,50.0,-100.00,SSW,210,19.0,29.0,98,-99.99,,,-99.99,,2013-01-11 19:22:00,
2013-01-11 13:32:00,51.0,50.0,-100.00,SSW,210,19.0,29.0,98,-99.99,,,-99.99,,2013-01-11 19:32:00,
2013-01-11 13:43:00,51.0,49.0,-100.00,South,185,21.0,28.0,93,-99.99,,,-99.99,,2013-01-11 19:43:00,
2013-01-11 13:53:00,51.0,48.0,-100.00,SSW,200,20.0,29.0,87,-99.99,,,-99.99,,2013-01-11 19:53:00,
2013-01-11 14:03:00,51.0,48.0,-100.00,SSW,200,20.0,29.0,87,-99.99,,,-99.99,,2013-01-11 20:03:00,
2013-01-11 14:12:00,52.0,48.0,-100.00,South,185,16.0,26.0,84,-99.99,,,-99.99,,2013-01-11 20:12:00,
2013-01-11 14:22:00,53.0,48.0,-100.00,South,175,14.0,21.0,84,-99.99,,,-99.99,,2013-01-11 20:22:00,
2013-01-11 14:33:00,53.0,48.0,-100.00,South,175,14.0,21.0,84,-99.99,,,-99.99,,2013-01-11 20:33:00,
2013-01-11 14:43:00,54.0,48.0,-100.00,South,190,21.0,26.0,82,-99.99,,,-99.99,,2013-01-11 20:43:00,
2013-01-11 14:53:00,54.0,48.0,-100.00,South,180,16.0,26.0,81,-99.99,,,-99.99,,2013-01-11 20:53:00,
2013-01-11 15:03:00,54.0,48.0,-100.00,South,180,16.0,26.0,81,-99.99,,,-99.99,,2013-01-11 21:03:00,
2013-01-11 15:12:00,54.0,49.0,-100.00,South,175,16.0,24.0,81,-99.99,,,-99.99,,2013-01-11 21:12:00,
2013-01-11 15:23:00,54.0,48.0,-100.00,South,175,18.0,24.0,82,-99.99,,,-99.99,,2013-01-11 21:23:00,
2013-01-11 15:33:00,54.0,48.0,-100.00,South,175,18.0,24.0,82,-99.99,,,-99.99,,2013-01-11 21:33:00,
2013-01-11 15:42:00,54.0,49.0,-100.00,SSE,165,15.0,23.0,83,-99.99,,,-99.99,,2013-01-11 21:42:00,
2013-01-11 15:53:00,54.0,49.0,-100.00,South,170,17.0,24.0,83,-99.99,,,-99.99,,2013-01-11 21:53:00,
2013-01-11 16:02:00,54.0,49.0,-100.00,South,170,17.0,24.0,83,-99.99,,,-99.99,,2013-01-11 22:02:00,
2013-01-11 16:12:00,54.0,49.0,-100.00,South,170,18.0,23.0,83,-99.99,,,-99.99,,2013-01-11 22:12:00,
2013-01-11 16:22:00,54.0,48.0,-100.00,South,190,19.0,26.0,80,-99.99,,,-99.99,,2013-01-11 22:22:00,
2013-01-11 16:33:00,54.0,48.0,-100.00,South,190,19.0,26.0,80,-99.99,,,-99.99,,2013-01-11 22:33:00,
2013-01-11 16:42:00,54.0,48.0,-100.00,South,180,17.0,26.0,80,-99.99,,,-99.99,,2013-01-11 22:42:00,
2013-01-11 16:53:00,54.0,48.0,-100.00,South,180,17.0,28.0,80,-99.99,,,-99.99,,2013-01-11 22:53:00,
2013-01-11 17:02:00,54.0,48.0,-100.00,South,180,17.0,28.0,80,-99.99,,,-99.99,,2013-01-11 23:02:00,
2013-01-11 17:13:00,54.0,47.0,-100.00,South,185,24.0,32.0,77,-99.99,,,-99.99,,2013-01-11 23:13:00,
2013-01-11 17:22:00,54.0,47.0,-100.00,South,185,19.0,27.0,77,-99.99,,,-99.99,,2013-01-11 23:22:00,
2013-01-11 17:32:00,54.0,47.0,-100.00,South,185,19.0,27.0,77,-99.99,,,-99.99,,2013-01-11 23:32:00,
2013-01-11 17:43:00,54.0,47.0,-100.00,South,185,22.0,30.0,78,-99.99,,,-99.99,,2013-01-11 23:43:00,
2013-01-11 17:53:00,53.0,47.0,-100.00,South,190,17.0,27.0,79,-99.99,,,-99.99,,2013-01-11 23:53:00,
2013-01-11 18:02:00,53.0,47.0,-100.00,South,190,17.0,27.0,79,-99.99,,,-99.99,,2013-01-12 00:02:00,
2013-01-11 18:12:00,54.0,48.0,-100.00,South,180,16.0,26.0,80,-99.99,,,-99.99,,2013-01-12 00:12:00,
2013-01-11 18:23:00,53.0,48.0,-100.00,South,180,16.0,21.0,81,-99.99,,,-99.99,,2013-01-12 00:23:00,
2013-01-11 18:32:00,53.0,48.0,-100.00,South,180,16.0,21.0,81,-99.99,,,-99.99,,2013-01-12 00:32:00,
2013-01-11 18:43:00,53.0,48.0,-100.00,South,175,17.0,23.0,81,-99.99,,,-99.99,,2013-01-12 00:43:00,
2013-01-11 18:53:00,53.0,48.0,-100.00,South,180,14.0,23.0,82,-99.99,,,-99.99,,2013-01-12 00:53:00,
2013-01-11 19:02:00,53.0,48.0,-100.00,South,180,14.0,23.0,82,-99.99,,,-99.99,,2013-01-12 01:02:00,
2013-01-11 19:12:00,53.0,48.0,-100.00,South,185,16.0,24.0,81,-99.99,,,-99.99,,2013-01-12 01:12:00,
2013-01-11 19:22:00,54.0,48.0,-100.00,South,180,18.0,26.0,80,-99.99,,,-99.99,,2013-01-12 01:22:00,
2013-01-11 19:33:00,54.0,47.0,-100.00,South,185,18.0,24.0,79,-99.99,,,-99.99,,2013-01-12 01:33:00,
2013-01-11 19:43:00,54.0,47.0,-100.00,South,185,18.0,24.0,79,-99.99,,,-99.99,,2013-01-12 01:43:00,
2013-01-11 19:52:00,54.0,47.0,-100.00,South,185,18.0,25.0,78,-99.99,,,-99.99,,2013-01-12 01:52:00,
2013-01-11 20:02:00,54.0,47.0,-100.00,South,185,18.0,25.0,78,-99.99,,,-99.99,,2013-01-12 02:02:00,
2013-01-11 20:12:00,54.0,47.0,-100.00,South,170,17.0,26.0,77,-99.99,,,-99.99,,2013-01-12 02:12:00,
2013-01-11 20:22:00,54.0,46.0,-100.00,South,175,19.0,25.0,76,-99.99,,,-99.99,,2013-01-12 02:22:00,
2013-01-11 20:33:00,54.0,46.0,-100.00,South,175,19.0,25.0,76,-99.99,,,-99.99,,2013-01-12 02:33:00,
2013-01-11 20:43:00,54.0,46.0,-100.00,South,180,17.0,23.0,75,-99.99,,,-99.99,,2013-01-12 02:43:00,
2013-01-11 20:53:00,54.0,46.0,-100.00,South,180,16.0,27.0,74,-99.99,,,-99.99,,2013-01-12 02:53:00,
2013-01-11 21:03:00,54.0,46.0,-100.00,South,180,16.0,27.0,74,-99.99,,,-99.99,,2013-01-12 03:03:00,
2013-01-11 21:12:00,54.0,46.0,-100.00,South,180,17.0,27.0,74,-99.99,,,-99.99,,2013-01-12 03:12:00,
2013-01-11 21:22:00,54.0,46.0,-100.00,South,185,20.0,25.0,74,-99.99,,,-99.99,,2013-01-12 03:22:00,
2013-01-11 21:33:00,54.0,46.0,-100.00,South,185,20.0,25.0,74,-99.99,,,-99.99,,2013-01-12 03:33:00,
2013-01-11 21:43:00,54.0,46.0,-100.00,SSW,195,17.0,27.0,74,-99.99,,,-99.99,,2013-01-12 03:43:00,
2013-01-11 21:53:00,53.0,46.0,-100.00,South,190,16.0,26.0,75,-99.99,,,-99.99,,2013-01-12 03:53:00,
2013-01-11 22:02:00,53.0,46.0,-100.00,South,190,16.0,26.0,75,-99.99,,,-99.99,,2013-01-12 04:02:00,
2013-01-11 22:12:00,53.0,46.0,-100.00,SSW,195,21.0,27.0,76,-99.99,,,-99.99,,2013-01-12 04:12:00,
2013-01-11 22:22:00,53.0,46.0,-100.00,SSW,205,18.0,27.0,77,-99.99,,,-99.99,,2013-01-12 04:22:00,
2013-01-11 22:32:00,53.0,46.0,-100.00,SSW,195,19.0,28.0,77,-99.99,,,-99.99,,2013-01-12 04:32:00,
2013-01-11 22:42:00,53.0,46.0,-100.00,SSW,195,19.0,28.0,77,-99.99,,,-99.99,,2013-01-12 04:42:00,
2013-01-11 22:52:00,53.0,46.0,-100.00,SSW,205,20.0,29.0,77,-99.99,,,-99.99,,2013-01-12 04:52:00,
2013-01-11 23:03:00,53.0,46.0,-100.00,SSW,205,20.0,29.0,77,-99.99,,,-99.99,,2013-01-12 05:03:00,
2013-01-11 23:12:00,53.0,46.0,-100.00,SSW,200,22.0,31.0,77,-99.99,,,-99.99,,2013-01-12 05:12:00,
2013-01-11 23:22:00,53.0,46.0,-100.00,SSW,200,21.0,29.0,77,-99.99,,,-99.99,,2013-01-12 05:22:00,
2013-01-11 23:32:00,53.0,46.0,-100.00,SSW,200,21.0,29.0,77,-99.99,,,-99.99,,2013-01-12 05:32:00,
2013-01-11 23:42:00,53.0,47.0,-100.00,SSW,205,23.0,31.0,78,-99.99,,,-99.99,,2013-01-12 05:42:00,
2013-01-11 23:52:00,53.0,46.0,-100.00,SSW,205,21.0,30.0,79,-99.99,,,-99.99,,2013-01-12 05:52:00,